N1WTL Weather Reports


time (UTC)temp
C
wind
direction
speed
KPH
gust
KPH
rain 1hr
cm
rain 24hr
cm
rain mn
cm
humidity
%
barometer
mb
20260502123033 3 199 0.0 4.8 0.00 0.15 0.15 87 1008.7
20260502121528 3 53 0.0 1.6 0.00 0.15 0.15 91 1008.7
20260502114522 2 252 0.0 1.6 0.00 0.15 0.15 91 1008.6
20260502113029 2 19 0.0 1.6 0.00 0.15 0.15 91 1008.8
20260502111527 1 6 0.0 1.6 0.03 0.15 0.15 91 1008.7
20260502110028 1 6 0.0 1.6 0.03 0.15 0.15 91 1008.8
20260502104520 1 79 0.0 0.0 0.08 0.15 0.15 91 1008.7
20260502103022 1 80 0.0 0.0 0.13 0.15 0.15 91 1008.8
20260502101524 0 79 0.0 0.0 0.13 0.13 0.13 90 1008.6
20260502091523 1 266 0.0 1.6 0.00 0.00 0.00 85 1008.7
20260502071518 0 221 0.0 0.0 0.00 0.00 0.00 85 1008.5
20260502070025 -1 221 0.0 0.0 0.00 0.00 0.00 85 1008.3
20260502064527 -1 220 0.0 1.6 0.00 0.00 0.00 85 1008.1
20260502063029 -1 220 0.0 0.0 0.00 0.00 0.00 85 1008.2
20260502061529 -1 220 0.0 0.0 0.00 0.00 0.00 84 1008.2
20260502060019 -1 220 0.0 0.0 0.00 0.00 0.00 83 1008.3
20260502054502 -1 220 0.0 0.0 0.00 0.00 0.00 83 1008.3
20260502053003 -1 220 0.0 0.0 0.00 0.00 0.00 83 1008.2
20260502051505 -1 220 0.0 0.0 0.00 0.00 0.00 82 1008.2
20260502050006 -1 220 0.0 0.0 0.00 0.00 0.00 81 1008.2
20260502044505 0 220 0.0 0.0 0.00 0.00 0.00 81 1008.3
20260502043003 0 220 0.0 1.6 0.00 0.00 0.00 81 1008.2
20260502041506 0 220 0.0 0.0 0.00 0.00 0.00 81 1008.2
20260502040008 0 220 0.0 0.0 0.00 0.00 0.00 80 1008.0
20260502034508 0 220 0.0 1.6 0.00 0.00 0.00 80 1007.9
20260502033011 0 220 0.0 0.0 0.00 0.00 0.00 78 1008.0
20260502031510 0 220 0.0 0.0 0.00 0.00 0.00 77 1008.0
20260502030005 1 220 0.0 0.0 0.00 0.00 0.00 74 1008.0
20260502024512 1 220 0.0 0.0 0.00 0.00 0.00 73 1008.1
20260502023013 1 220 0.0 0.0 0.00 0.00 0.00 71 1008.1
20260502021508 1 220 0.0 0.0 0.00 0.00 0.00 68 1008.0
20260502020012 2 220 0.0 1.6 0.00 0.00 0.00 67 1008.0
20260502014509 2 220 0.0 0.0 0.00 0.00 0.00 66 1007.9
20260502013014 2 220 0.0 0.0 0.00 0.00 0.00 65 1007.8
20260502011512 3 220 0.0 0.0 0.00 0.00 0.00 60 1007.7
20260502010020 4 220 0.0 1.6 0.00 0.00 0.00 58 1007.6
20260502004514 4 220 0.0 1.6 0.00 0.00 0.00 56 1007.5
20260502003008 5 220 0.0 0.0 0.00 0.00 0.00 53 1007.2
20260502001514 6 220 0.0 1.6 0.00 0.00 0.00 49 1006.9
20260502000016 7 255 0.0 1.6 0.00 0.00 0.00 45 1006.8
20260501234516 8 13 0.0 3.2 0.00 0.00 0.00 41 1006.5
20260501233017 8 238 1.6 3.2 0.00 0.00 0.00 37 1006.4
20260501231512 8 207 0.0 3.2 0.00 0.00 0.00 38 1006.2
20260501230014 9 95 1.6 6.4 0.00 0.00 0.00 36 1006.0
20260501224515 9 11 0.0 6.4 0.00 0.00 0.00 36 1005.9
20260501223016 10 1 0.0 12.9 0.00 0.00 0.00 33 1005.9
20260501221517 10 37 3.2 6.4 0.00 0.00 0.00 34 1005.7
20260501220014 10 203 4.8 14.5 0.00 0.00 0.00 33 1005.6
20260501214529 11 157 4.8 16.1 0.00 0.00 0.00 30 1005.4
20260501213019 11 30 3.2 12.9 0.00 0.00 0.00 30 1005.3
20260501211522 11 242 4.8 11.3 0.00 0.00 0.00 30 1005.3
20260501210022 12 322 4.8 9.7 0.00 0.00 0.00 33 1005.1
20260501204511 12 327 1.6 22.5 0.00 0.00 0.00 34 1005.1
20260501203018 11 297 3.2 14.5 0.00 0.00 0.00 35 1005.0
20260501201519 11 81 3.2 9.7 0.00 0.00 0.00 36 1004.9
20260501200023 11 4 1.6 12.9 0.00 0.00 0.00 37 1004.8
20260501194528 12 13 8.0 25.7 0.00 0.00 0.00 32 1004.8
20260501193014 12 25 3.2 12.9 0.00 0.00 0.00 35 1004.8
20260501191522 12 291 4.8 22.5 0.00 0.00 0.00 36 1004.8
20260501190037 12 176 3.2 14.5 0.00 0.00 0.00 36 1004.9
20260501184524 12 328 3.2 16.1 0.00 0.00 0.00 35 1004.7
20260501183024 12 356 3.2 9.7 0.00 0.00 0.00 36 1004.7
20260501181527 12 330 4.8 9.7 0.00 0.00 0.00 37 1004.8
20260501180027 12 11 1.6 9.7 0.00 0.00 0.00 41 1004.9
20260501174513 11 250 1.6 14.5 0.00 0.00 0.00 42 1004.9
20260501173026 11 56 3.2 11.3 0.00 0.00 0.00 41 1004.8
20260501171512 11 57 1.6 17.7 0.00 0.00 0.00 45 1004.9
20260501170018 10 52 1.6 16.1 0.00 0.03 0.00 46 1005.0
20260501164518 10 243 3.2 14.5 0.00 0.03 0.00 48 1005.1
20260501163016 10 241 1.6 11.3 0.00 0.03 0.00 51 1005.1
20260501161518 9 211 1.6 12.9 0.00 0.03 0.00 53 1005.2
20260501160015 8 261 1.6 12.9 0.00 0.03 0.00 55 1005.4
20260501154522 8 318 1.6 8.0 0.00 0.05 0.00 52 1005.4
20260501153041 8 352 1.6 12.9 0.00 0.05 0.00 54 1005.4
20260501151522 7 11 4.8 9.7 0.00 0.08 0.00 54 1005.5
20260501150021 7 355 1.6 16.1 0.00 0.10 0.00 56 1005.4
20260501144529 7 203 0.0 11.3 0.00 0.10 0.00 59 1005.5
20260501143023 7 20 1.6 6.4 0.00 0.10 0.00 58 1005.5
20260501141530 7 252 3.2 16.1 0.00 0.10 0.00 57 1005.7
20260501140020 7 130 3.2 19.3 0.00 0.10 0.00 56 1005.7
20260501134534 7 347 6.4 16.1 0.00 0.10 0.00 57 1005.7